Location: Marcé
(47.5801°N, 0.3280°W)
Time: 14:57:15
(UTC+01:00)

Vanguard 3 - Pass Details

Date: 15 December 2021
Orbit: 508 x 3260 km, 33.3° (Epoch: 20 January)

Event Time Altitude Azimuth Distance (km) Brightness Sun altitude
Rises 23:07:16 0° 190° (S) 4,961 - -57.4°
Reaches altitude 10° 23:11:32 10° 173° (S) 4,434 - -57.9°
Maximum altitude 23:19:43 19° 133° (SE) 4,434 - -59.0°
Drops below altitude 10° 23:30:09 10° 96° (E) 5,867 - -60.2°
Sets 23:37:10 0° 83° (E) 7,147 - -61.0°
